When you browse on this site, cookies collect data to enhance your experience and personalize the content and advertising you see.
Visit our Privacy Policy to learn more. By continuing to use the site, you agree to this use of cookies and data.
  • en Suisse
  • Liste des pays
  • À 7 jours
  • Température de l'eau
  • Carte satellitaire
  • Carte météo
  • Widgets météo
  • user-avatar
    Se connecter

    Météo par heure à Tucupita

    Ce jour, 23 Juillet, Mardi

    Heure Température Précipitation Vent Pression Humidité
    00:00 +25°C° 0.1 mm 1 m/s 760 mmHg 98%
    01:00 +25°C° 0.1 mm 1 m/s 760 mmHg 98%
    02:00 +23°C° 0.1 mm 0 m/s 759 mmHg 99%
    03:00 +23°C° 0.2 mm 0 m/s 759 mmHg 99%
    04:00 +25°C° 0.2 mm 1 m/s 759 mmHg 99%
    05:00 +25°C° 0.2 mm 1 m/s 759 mmHg 99%
    06:00 +25°C° 0.2 mm 1 m/s 759 mmHg 97%
    07:00 +26°C° 0.2 mm 1 m/s 760 mmHg 95%
    08:00 +27°C° 0.2 mm 2 m/s 760 mmHg 93%
    09:00 +29°C° 0.2 mm 2 m/s 760 mmHg 82%
    10:00 +31°C° 0.2 mm 2 m/s 760 mmHg 72%
    11:00 +32°C° 0.2 mm 2 m/s 760 mmHg 61%
    12:00 +34°C° 0.2 mm 2 m/s 759 mmHg 59%
    13:00 +35°C° 0.2 mm 2 m/s 759 mmHg 57%
    14:00 +35°C° 0.2 mm 2 m/s 758 mmHg 54%
    15:00 +34°C° 0.2 mm 2 m/s 758 mmHg 58%
    16:00 +34°C° 0.2 mm 2 m/s 757 mmHg 61%
    17:00 +32°C° 0.2 mm 2 m/s 757 mmHg 64%
    18:00 +30°C° 0.1 mm 2 m/s 757 mmHg 73%
    19:00 +28°C° 0.1 mm 2 m/s 758 mmHg 82%
    20:00 +26°C° 0.1 mm 1 m/s 759 mmHg 91%
    21:00 +26°C° 0 mm 1 m/s 759 mmHg 93%
    22:00 +26°C° 0 mm 1 m/s 759 mmHg 95%
    23:00 +25°C° 0 mm 1 m/s 760 mmHg 97%

    Demain, 24 Juillet, Mercredi

    Heure Température Précipitation Vent Pression Humidité
    00:00 +25°C° 0 mm 1 m/s 760 mmHg 98%
    01:00 +25°C° 0 mm 1 m/s 759 mmHg 98%
    02:00 +25°C° 0 mm 1 m/s 759 mmHg 99%
    03:00 +25°C° 0.1 mm 1 m/s 759 mmHg 99%
    04:00 +25°C° 0.1 mm 1 m/s 759 mmHg 99%
    05:00 +24°C° 0.1 mm 1 m/s 759 mmHg 99%
    06:00 +25°C° 0.3 mm 1 m/s 759 mmHg 96%
    07:00 +26°C° 0.3 mm 1 m/s 759 mmHg 94%
    08:00 +27°C° 0.3 mm 1 m/s 760 mmHg 91%
    09:00 +28°C° 0.4 mm 1 m/s 760 mmHg 85%
    10:00 +30°C° 0.4 mm 2 m/s 760 mmHg 79%
    11:00 +31°C° 0.4 mm 2 m/s 760 mmHg 73%
    12:00 +31°C° 0.3 mm 2 m/s 759 mmHg 68%
    13:00 +32°C° 0.3 mm 2 m/s 758 mmHg 63%
    14:00 +34°C° 0.3 mm 2 m/s 757 mmHg 58%
    15:00 +34°C° 0.1 mm 2 m/s 757 mmHg 61%
    16:00 +32°C° 0.1 mm 2 m/s 757 mmHg 63%
    17:00 +31°C° 0.1 mm 2 m/s 757 mmHg 66%
    18:00 +30°C° 0.1 mm 2 m/s 757 mmHg 73%
    19:00 +28°C° 0.1 mm 2 m/s 758 mmHg 80%
    20:00 +26°C° 0.1 mm 1 m/s 758 mmHg 87%
    21:00 +25°C° 0 mm 1 m/s 759 mmHg 90%
    22:00 +25°C° 0 mm 1 m/s 759 mmHg 93%
    23:00 +24°C° 0 mm 1 m/s 760 mmHg 96%

    Après-demain, 25 Juillet, Jeudi

    Heure Température Précipitation Vent Pression Humidité
    00:00 +24°C° 0 mm 1 m/s 759 mmHg 97%
    01:00 +24°C° 0 mm 1 m/s 759 mmHg 97%
    02:00 +23°C° 0 mm 1 m/s 758 mmHg 98%
    03:00 +23°C° 0 mm 1 m/s 758 mmHg 98%
    04:00 +21°C° 0 mm 0 m/s 758 mmHg 98%
    05:00 +21°C° 0 mm 0 m/s 758 mmHg 98%
    06:00 +23°C° 0 mm 0 m/s 758 mmHg 92%
    07:00 +26°C° 0 mm 1 m/s 759 mmHg 87%
    08:00 +28°C° 0 mm 1 m/s 759 mmHg 81%
    09:00 +30°C° 0 mm 1 m/s 759 mmHg 72%
    10:00 +32°C° 0 mm 1 m/s 759 mmHg 63%
    11:00 +35°C° 0 mm 2 m/s 759 mmHg 54%
    12:00 +32°C° 1.6 mm 2 m/s 759 mmHg 64%
    13:00 +31°C° 1.6 mm 3 m/s 758 mmHg 74%
    14:00 +30°C° 1.6 mm 3 m/s 757 mmHg 84%
    15:00 +30°C° 0.8 mm 3 m/s 757 mmHg 82%
    16:00 +29°C° 0.8 mm 3 m/s 757 mmHg 81%
    17:00 +29°C° 0.8 mm 2 m/s 757 mmHg 80%
    18:00 +28°C° 0 mm 2 m/s 758 mmHg 82%
    19:00 +28°C° 0 mm 2 m/s 758 mmHg 85%
    20:00 +27°C° 0 mm 2 m/s 758 mmHg 87%
    21:00 +26°C° 0 mm 1 m/s 759 mmHg 89%
    22:00 +26°C° 0 mm 1 m/s 759 mmHg 91%
    23:00 +25°C° 0 mm 1 m/s 760 mmHg 93%

    26 Juillet, Vendredi

    Heure Température Précipitation Vent Pression Humidité
    00:00 +25°C° 0 mm 1 m/s 759 mmHg 95%
    01:00 +25°C° 0 mm 1 m/s 759 mmHg 96%
    02:00 +24°C° 0 mm 1 m/s 758 mmHg 97%
    03:00 +24°C° 0.1 mm 1 m/s 758 mmHg 97%
    04:00 +24°C° 0.1 mm 1 m/s 758 mmHg 98%
    05:00 +24°C° 0.1 mm 1 m/s 758 mmHg 98%
    06:00 +25°C° 0.4 mm 1 m/s 759 mmHg 97%
    07:00 +26°C° 0.4 mm 1 m/s 759 mmHg 95%
    08:00 +26°C° 0.4 mm 1 m/s 760 mmHg 94%
    09:00 +27°C° 1.2 mm 1 m/s 760 mmHg 91%
    10:00 +28°C° 1.2 mm 2 m/s 760 mmHg 88%
    11:00 +29°C° 1.2 mm 2 m/s 760 mmHg 85%
    12:00 +30°C° 0.5 mm 2 m/s 759 mmHg 79%
    13:00 +31°C° 0.5 mm 2 m/s 758 mmHg 72%
    14:00 +32°C° 0.5 mm 2 m/s 758 mmHg 66%
    15:00 +31°C° 0.6 mm 2 m/s 758 mmHg 72%
    16:00 +30°C° 0.6 mm 2 m/s 758 mmHg 78%
    17:00 +29°C° 0.6 mm 2 m/s 757 mmHg 83%
    18:00 +28°C° 0.2 mm 2 m/s 758 mmHg 87%
    19:00 +27°C° 0.2 mm 1 m/s 758 mmHg 91%
    20:00 +26°C° 0.2 mm 1 m/s 759 mmHg 95%
    21:00 +26°C° 0 mm 1 m/s 759 mmHg 96%
    22:00 +26°C° 0 mm 1 m/s 760 mmHg 96%
    23:00 +25°C° 0 mm 1 m/s 760 mmHg 97%

    27 Juillet, Samedi

    Heure Température Précipitation Vent Pression Humidité
    00:00 +25°C° 0.1 mm 1 m/s 760 mmHg 97%
    01:00 +25°C° 0.1 mm 1 m/s 759 mmHg 97%
    02:00 +23°C° 0.1 mm 0 m/s 759 mmHg 97%
    03:00 +25°C° 0.3 mm 1 m/s 759 mmHg 98%
    04:00 +25°C° 0.3 mm 1 m/s 759 mmHg 98%
    05:00 +25°C° 0.3 mm 1 m/s 759 mmHg 98%
    06:00 +25°C° 0.1 mm 1 m/s 759 mmHg 96%
    07:00 +26°C° 0.1 mm 1 m/s 760 mmHg 94%
    08:00 +27°C° 0.1 mm 1 m/s 760 mmHg 91%
    09:00 +28°C° 0.8 mm 2 m/s 760 mmHg 89%
    10:00 +28°C° 0.8 mm 2 m/s 760 mmHg 87%
    11:00 +29°C° 0.8 mm 2 m/s 760 mmHg 85%
    12:00 +29°C° 0.7 mm 2 m/s 759 mmHg 82%
    13:00 +30°C° 0.7 mm 2 m/s 759 mmHg 80%
    14:00 +31°C° 0.7 mm 3 m/s 758 mmHg 77%
    15:00 +30°C° 0.4 mm 3 m/s 758 mmHg 77%
    16:00 +30°C° 0.4 mm 3 m/s 757 mmHg 77%
    17:00 +30°C° 0.4 mm 3 m/s 757 mmHg 77%
    18:00 +29°C° 0 mm 2 m/s 758 mmHg 83%
    19:00 +27°C° 0 mm 2 m/s 758 mmHg 88%
    20:00 +26°C° 0 mm 1 m/s 759 mmHg 93%
    21:00 +26°C° 0 mm 1 m/s 759 mmHg 94%
    22:00 +26°C° 0 mm 1 m/s 759 mmHg 95%
    23:00 +25°C° 0 mm 1 m/s 760 mmHg 97%

    28 Juillet, Dimanche

    Heure Température Précipitation Vent Pression Humidité
    00:00 +25°C° 0 mm 1 m/s 759 mmHg 97%
    01:00 +25°C° 0 mm 1 m/s 759 mmHg 98%
    02:00 +25°C° 0 mm 1 m/s 758 mmHg 98%
    03:00 +25°C° 0 mm 1 m/s 758 mmHg 98%
    04:00 +25°C° 0 mm 1 m/s 758 mmHg 98%
    05:00 +25°C° 0 mm 1 m/s 758 mmHg 98%
    06:00 +26°C° 0.2 mm 1 m/s 759 mmHg 94%
    07:00 +27°C° 0.2 mm 1 m/s 759 mmHg 89%
    08:00 +28°C° 0.2 mm 1 m/s 760 mmHg 85%
    09:00 +30°C° 0.7 mm 1 m/s 760 mmHg 78%
    10:00 +31°C° 0.7 mm 2 m/s 760 mmHg 70%
    11:00 +34°C° 0.7 mm 2 m/s 760 mmHg 63%
    12:00 +34°C° 1.2 mm 2 m/s 759 mmHg 64%
    13:00 +34°C° 1.2 mm 2 m/s 758 mmHg 64%
    14:00 +34°C° 1.2 mm 2 m/s 758 mmHg 65%
    15:00 +32°C° 1.6 mm 2 m/s 757 mmHg 73%
    16:00 +30°C° 1.6 mm 1 m/s 757 mmHg 81%
    17:00 +29°C° 1.6 mm 1 m/s 757 mmHg 89%
    18:00 +28°C° 2.7 mm 1 m/s 757 mmHg 91%
    19:00 +27°C° 2.7 mm 1 m/s 758 mmHg 93%
    20:00 +26°C° 2.7 mm 1 m/s 758 mmHg 94%
    21:00 +26°C° 1.7 mm 1 m/s 759 mmHg 95%
    22:00 +26°C° 1.7 mm 1 m/s 759 mmHg 96%
    23:00 +25°C° 1.7 mm 1 m/s 759 mmHg 97%
    Voir plus